| time (UTC) | temp F | wind direction | speed MPH | gust MPH | rain 1hr in | rain 24hr in | rain mn in | humidity % | barometer mb |
| 20260506133045 | 54 | 134 | 1.0 | 5.0 | 0.00 | 0.04 | 0.00 | 84 | 1013.0 |
| 20260506131544 | 54 | 46 | 1.0 | 5.0 | 0.00 | 0.04 | 0.00 | 84 | 1013.1 |
| 20260506130042 | 54 | 94 | 2.0 | 5.0 | 0.00 | 0.04 | 0.00 | 84 | 1013.1 |
| 20260506124541 | 54 | 68 | 1.0 | 8.0 | 0.00 | 0.04 | 0.00 | 84 | 1012.8 |
| 20260506123042 | 54 | 91 | 2.0 | 5.0 | 0.00 | 0.04 | 0.00 | 83 | 1012.3 |
| 20260506121534 | 54 | 28 | 0.0 | 4.0 | 0.00 | 0.04 | 0.00 | 82 | 1012.7 |
| 20260506120055 | 55 | 113 | 1.0 | 5.0 | 0.00 | 0.04 | 0.00 | 81 | 1012.3 |
| 20260506114530 | 55 | 31 | 1.0 | 6.0 | 0.00 | 0.04 | 0.00 | 81 | 1011.7 |
| 20260506113029 | 55 | 91 | 2.0 | 5.0 | 0.00 | 0.04 | 0.00 | 80 | 1011.8 |
| 20260506111526 | 56 | 229 | 0.0 | 4.0 | 0.00 | 0.04 | 0.00 | 80 | 1011.4 |
| 20260506110025 | 56 | 166 | 0.0 | 5.0 | 0.00 | 0.04 | 0.00 | 79 | 1011.2 |
| 20260506104520 | 56 | 81 | 1.0 | 4.0 | 0.00 | 0.04 | 0.00 | 78 | 1010.8 |
| 20260506103027 | 56 | 120 | 1.0 | 4.0 | 0.00 | 0.04 | 0.00 | 78 | 1010.7 |
| 20260506101518 | 57 | 91 | 2.0 | 6.0 | 0.00 | 0.04 | 0.00 | 77 | 1010.4 |
| 20260506100014 | 57 | 6 | 1.0 | 4.0 | 0.00 | 0.04 | 0.00 | 77 | 1010.4 |
| 20260506094526 | 57 | 94 | 0.0 | 2.0 | 0.00 | 0.04 | 0.00 | 77 | 1010.3 |
| 20260506093016 | 57 | 20 | 1.0 | 4.0 | 0.00 | 0.04 | 0.00 | 76 | 1010.3 |
| 20260506091509 | 58 | 105 | 1.0 | 4.0 | 0.00 | 0.04 | 0.00 | 77 | 1010.0 |
| 20260506090006 | 58 | 91 | 1.0 | 4.0 | 0.00 | 0.04 | 0.00 | 77 | 1009.8 |
| 20260506084506 | 58 | 94 | 0.0 | 3.0 | 0.00 | 0.04 | 0.00 | 78 | 1009.8 |
| 20260506083004 | 58 | 75 | 0.0 | 4.0 | 0.00 | 0.04 | 0.00 | 78 | 1009.3 |
| 20260506081505 | 58 | 320 | 0.0 | 4.0 | 0.00 | 0.04 | 0.00 | 78 | 1009.6 |
| 20260506073104 | 59 | 86 | 1.0 | 4.0 | 0.00 | 0.04 | 0.00 | 77 | 1009.8 |
| 20260506071558 | 59 | 115 | 1.0 | 3.0 | 0.00 | 0.04 | 0.00 | 78 | 1009.7 |
| 20260506070115 | 59 | 30 | 0.0 | 4.0 | 0.00 | 0.04 | 0.00 | 78 | 1009.7 |
| 20260506061550 | 61 | 38 | 1.0 | 6.0 | 0.00 | 0.04 | 0.00 | 78 | 1009.4 |
| 20260506044549 | 65 | 93 | 1.0 | 4.0 | 0.00 | 0.04 | 0.04 | 80 | 1008.8 |
| 20260506043029 | 66 | 98 | 2.0 | 5.0 | 0.00 | 0.04 | 0.04 | 79 | 1008.7 |
| 20260506041526 | 67 | 182 | 2.0 | 5.0 | 0.00 | 0.04 | 0.04 | 79 | 1008.3 |
| 20260506040022 | 68 | 109 | 1.0 | 4.0 | 0.00 | 0.04 | 0.04 | 79 | 1008.4 |
| 20260506034519 | 69 | 304 | 0.0 | 3.0 | 0.00 | 0.04 | 0.04 | 80 | 1008.0 |
| 20260506033015 | 70 | 128 | 0.0 | 2.0 | 0.00 | 0.04 | 0.04 | 80 | 1007.8 |
| 20260506031517 | 70 | 307 | 1.0 | 4.0 | 0.00 | 0.04 | 0.04 | 79 | 1007.8 |
| 20260506030012 | 71 | 42 | 0.0 | 5.0 | 0.00 | 0.04 | 0.04 | 79 | 1007.4 |
| 20260506024509 | 73 | 79 | 2.0 | 8.0 | 0.00 | 0.04 | 0.04 | 78 | 1006.8 |
| 20260506023007 | 73 | 103 | 0.0 | 2.0 | 0.00 | 0.04 | 0.04 | 81 | 1005.9 |
| 20260506021507 | 74 | 1 | 0.0 | 2.0 | 0.00 | 0.04 | 0.04 | 80 | 1006.2 |
| 20260506020005 | 74 | 84 | 0.0 | 2.0 | 0.00 | 0.04 | 0.04 | 80 | 1005.9 |
| 20260506014510 | 75 | 49 | 0.0 | 1.0 | 0.00 | 0.04 | 0.04 | 80 | 1005.6 |
| 20260506013005 | 77 | 23 | 1.0 | 6.0 | 0.03 | 0.04 | 0.04 | 82 | 1005.7 |
| 20260506011504 | 78 | 240 | 0.0 | 2.0 | 0.04 | 0.04 | 0.04 | 86 | 1004.9 |
| 20260506010003 | 78 | 122 | 0.0 | 2.0 | 0.04 | 0.04 | 0.04 | 86 | 1004.7 |
| 20260506004503 | 79 | 240 | 0.0 | 4.0 | 0.04 | 0.04 | 0.04 | 84 | 1004.9 |
| 20260506003003 | 80 | 204 | 0.0 | 7.0 | 0.01 | 0.01 | 0.01 | 81 | 1004.7 |
| 20260506001502 | 81 | 215 | 1.0 | 8.0 | 0.00 | 0.00 | 0.00 | 77 | 1004.4 |
| 20260506000002 | 82 | 226 | 3.0 | 6.0 | 0.00 | 0.00 | 0.00 | 74 | 1003.7 |
| 20260505234502 | 83 | 175 | 2.0 | 5.0 | 0.00 | 0.00 | 0.00 | 74 | 1003.7 |
| 20260505233101 | 84 | 244 | 3.0 | 11.0 | 0.00 | 0.00 | 0.00 | 72 | 1003.7 |
| 20260505233001 | 84 | 123 | 3.0 | 11.0 | 0.00 | 0.00 | 0.00 | 72 | 1003.7 |
| 20260505231601 | 85 | 181 | 2.0 | 6.0 | 0.00 | 0.00 | 0.00 | 71 | 1003.7 |
| 20260505230058 | 86 | 224 | 1.0 | 12.0 | 0.00 | 0.00 | 0.00 | 69 | 1003.5 |
| 20260505224558 | 86 | 112 | 3.0 | 13.0 | 0.00 | 0.00 | 0.00 | 68 | 1003.7 |
| 20260505223156 | 87 | 44 | 3.0 | 9.0 | 0.00 | 0.00 | 0.00 | 67 | 1003.3 |
| 20260505221608 | 88 | 288 | 2.0 | 6.0 | 0.00 | 0.00 | 0.00 | 66 | 1003.5 |
| 20260505220137 | 89 | 148 | 2.0 | 8.0 | 0.00 | 0.00 | 0.00 | 66 | 1003.4 |
| 20260505214614 | 88 | 91 | 3.0 | 8.0 | 0.00 | 0.00 | 0.00 | 66 | 1003.7 |
| 20260505213051 | 88 | 233 | 4.0 | 10.0 | 0.00 | 0.00 | 0.00 | 66 | 1003.7 |
| 20260505211606 | 88 | 98 | 3.0 | 13.0 | 0.00 | 0.00 | 0.00 | 66 | 1003.7 |
| 20260505210047 | 88 | 241 | 4.0 | 11.0 | 0.00 | 0.00 | 0.00 | 66 | 1003.8 |
| 20260505204546 | 87 | 248 | 4.0 | 11.0 | 0.00 | 0.00 | 0.00 | 66 | 1004.2 |
| 20260505203046 | 86 | 269 | 2.0 | 13.0 | 0.00 | 0.00 | 0.00 | 68 | 1004.2 |
| 20260505201543 | 85 | 262 | 3.0 | 13.0 | 0.00 | 0.00 | 0.00 | 68 | 1004.3 |
| 20260505200046 | 86 | 252 | 4.0 | 9.0 | 0.00 | 0.00 | 0.00 | 68 | 1004.4 |
| 20260505194539 | 85 | 243 | 5.0 | 12.0 | 0.00 | 0.00 | 0.00 | 70 | 1004.6 |
| 20260505193037 | 84 | 101 | 4.0 | 15.0 | 0.00 | 0.00 | 0.00 | 70 | 1004.5 |
| 20260505191534 | 83 | 186 | 3.0 | 13.0 | 0.00 | 0.00 | 0.00 | 72 | 1004.6 |
| 20260505190034 | 82 | 248 | 6.0 | 13.0 | 0.00 | 0.00 | 0.00 | 71 | 1004.8 |
| 20260505184531 | 82 | 252 | 6.0 | 15.0 | 0.00 | 0.00 | 0.00 | 72 | 1004.9 |
| 20260505183042 | 82 | 263 | 3.0 | 9.0 | 0.00 | 0.00 | 0.00 | 72 | 1004.9 |
| 20260505181530 | 83 | 229 | 5.0 | 13.0 | 0.00 | 0.00 | 0.00 | 71 | 1005.0 |
| 20260505180027 | 82 | 151 | 3.0 | 13.0 | 0.00 | 0.00 | 0.00 | 72 | 1005.1 |
| 20260505174526 | 82 | 247 | 6.0 | 12.0 | 0.00 | 0.00 | 0.00 | 72 | 1005.1 |
| 20260505173025 | 81 | 238 | 6.0 | 14.0 | 0.00 | 0.00 | 0.00 | 73 | 1005.1 |
| 20260505171522 | 81 | 53 | 4.0 | 13.0 | 0.00 | 0.00 | 0.00 | 73 | 1005.5 |
| 20260505170022 | 79 | 300 | 6.0 | 22.0 | 0.00 | 0.00 | 0.00 | 74 | 1005.4 |
| 20260505164519 | 80 | 231 | 5.0 | 15.0 | 0.00 | 0.00 | 0.00 | 74 | 1005.3 |
| 20260505163016 | 79 | 117 | 5.0 | 15.0 | 0.00 | 0.00 | 0.00 | 75 | 1005.2 |
| 20260505161515 | 78 | 231 | 7.0 | 15.0 | 0.00 | 0.00 | 0.00 | 76 | 1005.0 |
| 20260505153006 | 76 | 276 | 4.0 | 13.0 | 0.00 | 0.00 | 0.00 | 80 | 1005.3 |
| 20260505151509 | 75 | 240 | 5.0 | 16.0 | 0.00 | 0.00 | 0.00 | 80 | 1005.3 |